Location: Dittelbrunn
(50.0738°N, 10.2196°E)
Time: 04:19:40
(UTC+00:00)

Tsikada Rocket - Pass Details

Date: 18 September 2020
Orbit: 957 x 1010 km, 82.9° (Epoch: 20 October)

Event Time Altitude Azimuth Distance (km) Brightness Sun altitude
Rises 17:53:21 0° 348° (NNW) 3,658 7.3 -5.3°
Reaches altitude 10° 17:55:52 10° 347° (NNW) 2,704 6.6 -5.7°
Maximum altitude 18:02:00 70° 265° (W) 1,016 4.4 -6.7°
Drops below altitude 10° 18:08:06 10° 183° (S) 2,687 6.2 -7.6°
Sets 18:10:35 0° 181° (S) 3,633 6.9 -8.0°
